Location: Blue Mountain Vista Observatory
(40.6992°N, 75.9422°W)
Time: 04:52:11
(UTC-04:00)

Daily predictions for brighter satellites

Satellite Brightness Start Highest point End
(mag) Time Altitude Azimuth Time Altitude Azimuth Time Altitude Azimuth
Cosmos 836 Rocket 4.4 00:05:11 10° NNW 00:10:28 75° WSW 00:11:03 67° SSW
Cosmos 304 Rocket 3.7 00:06:36 10° NNW 00:11:24 74° WSW 00:11:32 73° WSW
Cosmos 1455 3.2 00:09:43 10° NNW 00:12:57 41° WNW 00:12:57 41° WNW
Cosmos 1666 Rocket 3.5 00:14:40 82° NNE 00:14:40 82° NNE 00:18:59 10° N
Cosmos 1844 Rocket 3.4 00:16:14 36° E 00:16:14 36° E 00:21:00 10° NE
Cosmos 1943 4.0 00:14:46 10° NW 00:19:55 37° WSW 00:20:39 36° WSW
Tsikada Rocket 4.0 00:23:22 56° SSE 00:24:39 70° E 00:30:58 10° NNE
Cosmos 1805 Rocket 4.3 00:26:04 44° W 00:26:14 44° WNW 00:30:25 10° N
CZ-2C R/B 3.2 00:28:02 64° SSE 00:29:00 90° NNE 00:34:46 10° NNW
Lacrosse 5 3.4 00:26:28 10° WNW 00:29:38 24° WSW 00:29:38 24° WSW
Cosmos 1633 Rocket 3.2 00:33:49 67° NW 00:33:49 67° NW 00:37:52 10° N
Cosmos 2242 Rocket 3.7 00:43:01 10° N 00:47:18 74° NW 00:47:18 74° NW
Cosmos 1816 Rocket 4.4 00:50:25 60° SSW 00:51:40 86° W 00:58:01 10° N
Cosmos 968 Rocket 3.4 00:53:51 72° WSW 00:54:15 77° WNW 00:59:33 10° NNE
CZ-2C R/B 2.9 00:49:45 10° N 00:54:58 56° WNW 00:55:49 50° WSW
Cosmos 1470 Rocket 3.8 01:01:55 64° NW 01:01:55 64° NW 01:05:56 10° N
Cosmos 2278 Rocket 3.0 01:03:25 36° ESE 01:03:25 36° ESE 01:08:30 10° NE
Meteor 1-26 Rocket 4.2 00:58:39 10° N 01:04:11 68° E 01:04:49 62° ESE
BREEZE-M DEB 4.0 00:54:22 10° WSW 01:04:40 60° NNW 01:07:49 10° NE
H-2A R/B 4.1 01:03:44 10° NE 01:07:06 27° E 01:07:06 27° E
Cosmos 1844 3.5 01:07:55 73° SSE 01:08:18 77° ESE 01:13:55 10° NNE
Cosmos 2084 Rocket 4.2 01:08:45 10° NNW 01:11:30 44° NNW 01:11:30 44° NNW
Cosmos 1538 Rocket 3.9 01:07:33 10° NNW 01:12:58 90° WSW 01:13:18 80° SSE
SL-24 R/B - RUBIN 2 3.8 01:09:52 10° NNW 01:15:22 79° ENE 01:15:38 76° E
Cosmos 1933 4.3 01:13:07 10° NNW 01:16:12 41° NW 01:16:12 41° NW
COSMOS 2406 3.1 01:13:02 10° NNW 01:18:41 71° WSW 01:19:01 69° SW
Okean 1-7 4.0 01:17:16 10° N 01:21:17 37° ENE 01:21:17 37° ENE
ALOS 2 4.1 01:23:03 26° WNW 01:23:03 26° WNW 01:26:05 10° NW
Cosmos 2279 Rocket 4.3 01:16:34 10° N 01:22:46 60° E 01:24:20 46° SE
CZ-4C R/B 2.6 01:22:54 44° W 01:24:17 57° NW 01:30:10 10° NNE
Cosmos 1461 4.4 01:27:08 26° ENE 01:27:08 26° ENE 01:29:18 10° NE
Cosmos 1689 Rocket 4.3 01:27:08 27° N 01:27:08 27° N 01:28:45 10° N
Meteor 2-10 Rocket 3.9 01:21:38 10° NNW 01:26:48 51° W 01:27:04 51° WSW
CZ-4B R/B 2.9 01:31:59 38° N 01:31:59 38° N 01:34:16 10° N
Cosmos 292 Rocket 4.3 01:26:44 10° NNW 01:30:47 48° WNW 01:30:47 48° WNW
Cosmos 1315 Rocket 3.7 01:34:45 43° NW 01:34:45 43° NW 01:37:50 10° N
Landsat 5 3.7 01:36:20 69° NNW 01:36:20 69° NNW 01:40:03 10° NNW
Cosmos 2082 Rocket 3.9 01:32:13 10° N 01:37:02 28° NE 01:41:12 13° ESE
Meteor 2-3 Rocket 3.7 01:36:55 63° SW 01:37:46 75° W 01:43:35 10° N
ATLAS 3B R/B 4.0 01:41:11 25° SE 01:42:46 27° ESE 01:48:40 10° NE
PSLV R/B 4.2 01:40:29 10° NNE 01:44:32 46° E 01:44:32 46° E
Cosmos 1825 3.4 01:46:16 36° ENE 01:46:16 36° ENE 01:49:10 10° NNE
Cosmos 2112 Rocket 4.4 01:46:32 10° NNW 01:51:46 60° ENE 01:53:06 45° ESE
Cosmos 44 4.4 01:53:36 29° E 01:53:36 29° E 01:57:03 10° NE
Cosmos 773 Rocket 4.3 01:48:04 10° NNW 01:53:05 52° W 01:53:05 52° W
Cosmos 1782 3.2 01:50:27 10° N 01:54:05 61° NE 01:54:05 61° NE
Cosmos 1634 Rocket 4.4 01:49:19 10° NNW 01:55:09 44° W 01:56:07 41° WSW
Meteor 2-6 Rocket 4.4 01:52:11 10° N 01:57:43 67° ENE 01:59:07 49° SE
Cosmos 1408 3.5 01:59:38 46° NE 01:59:38 46° NE 02:02:22 10° NNE
Cosmos 1844 Rocket 4.0 01:57:52 25° W 01:59:50 32° WNW 02:04:48 10° N
Timation 1 Rocket 4.2 01:59:59 61° S 02:01:08 84° ESE 02:07:07 10° NNE
Cosmos 44 Rocket 3.8 02:02:28 46° ESE 02:02:28 46° ESE 02:06:58 10° NE
Cosmos 1680 Rocket 3.4 01:59:22 10° NNW 02:04:40 90° SE 02:05:27 66° SSE
Cosmos 1346 Rocket 3.9 02:06:50 10° NNW 02:09:34 36° NW 02:09:34 36° NW
Cosmos 1937 Rocket 4.5 02:09:42 32° ESE 02:10:36 34° E 02:15:14 10° NE
Helios 1A Rocket 3.5 02:07:12 10° NNE 02:11:08 48° E 02:11:08 48° E
Aureole 1 Rocket 4.4 02:04:22 10° NNW 02:11:15 84° ENE 02:15:28 32° SSE
Cosmos 1174 4.4 02:14:36 62° SSE 02:15:16 69° ESE 02:21:21 10° NE
Resurs 1-4 Rocket 4.2 02:12:58 10° NE 02:16:23 17° E 02:19:00 12° SE
Cosmos 1092 Rocket 4.2 02:16:54 40° SSE 02:19:05 62° E 02:25:16 10° NNE
Cosmos 2221 Rocket 4.2 02:15:16 10° NNW 02:19:08 43° WNW 02:19:08 43° WNW
Cosmos 1898 Rocket 3.6 02:22:53 55° SSE 02:23:48 66° ESE 02:29:01 10° NNE
Cosmos 1607 3.8 02:24:03 51° SSW 02:25:43 80° ESE 02:32:00 10° NE
SeaSat 1 2.8 02:26:04 30° SE 02:28:23 64° ENE 02:33:17 10° NNW
CZ-2D R/B 3.9 02:27:31 10° NE 02:31:48 24° E 02:34:35 16° SE
USA 238 DEB 4.4 02:31:18 32° SSE 02:33:45 42° ESE 02:40:15 10° NE
USA 238 4.4 02:31:24 31° SSE 02:33:52 42° ESE 02:40:20 10° NE
Cosmos 1606 3.7 02:33:05 10° NNW 02:36:00 36° WNW 02:36:00 36° WNW
ARIANE 5 R/B 4.3 02:34:12 10° NE 02:38:05 22° E 02:40:36 16° SE
SL-08 R/B 3.8 02:39:19 31° SE 02:41:29 58° ENE 02:46:12 10° N
H-2A R/B 3.9 02:39:10 10° N 02:43:02 28° WNW 02:43:43 27° W
Cosmos 1340 2.6 02:39:21 10° N 02:43:09 80° E 02:43:13 79° E
CBERS-1 4.2 02:40:34 10° NNE 02:45:41 63° ESE 02:47:21 41° SSE
Cosmos 2278 Rocket 3.4 02:45:15 25° W 02:47:27 33° WNW 02:52:32 10° N
Cosmos 858 Rocket 4.4 02:51:18 49° SSW 02:52:42 80° WNW 02:57:55 10° NNE
Nadezhda 4 Rocket 4.4 02:50:39 37° SW 02:52:47 51° WNW 02:58:55 10° N
IRS-P3 4.1 02:49:48 10° NNE 02:55:10 90° ENE 02:57:02 43° SSW
Cosmos 1833 Rocket 2.6 02:50:51 10° NNW 02:56:30 73° WSW 02:58:54 35° S
CZ-3B DEB 4.2 02:43:20 10° NW 02:56:40 79° NE 03:08:00 10° SE
NPP 3.6 02:51:57 10° NNE 02:57:22 87° ESE 02:59:20 41° SSW
Cosmos 2369 Rocket 4.0 02:54:36 14° SE 02:57:51 22° E 03:02:06 10° NE
Cosmos 1655 Rocket 4.4 02:55:49 26° SSE 02:59:23 59° E 03:05:31 10° NNE
GP-B 3.0 02:58:52 10° N 03:03:19 84° W 03:04:28 50° S
COSMOS 2487 2.5 03:00:06 10° NNW 03:03:26 65° W 03:03:26 65° W
SL-16 R/B 2.9 03:01:34 13° SSE 03:07:06 66° ENE 03:13:17 10° N
Cosmos 2297 4.2 03:04:57 33° WSW 03:07:10 50° WNW 03:12:42 10° NNE
UNK 4.4 03:04:26 19° SE 03:07:39 54° ENE 03:12:14 10° N
Cosmos 2298 Rocket 4.2 03:07:34 39° SW 03:09:24 61° WNW 03:14:41 10° NNE
Cosmos 1437 4.5 03:08:23 10° NNE 03:11:19 30° ENE 03:12:58 19° SE
USA 267 4.0 03:06:32 10° ENE 03:12:36 39° SE 03:15:50 24° S
NOSS 3-2 (A) 4.4 03:11:19 22° SSE 03:14:28 36° ESE 03:20:15 10° NE
Cosmos 1975 Rocket 4.0 03:11:18 10° N 03:15:29 45° ENE 03:18:42 16° SSE
Cosmos 1812 3.7 03:12:25 10° N 03:16:09 44° E 03:18:29 20° SE
Exosat Rocket 4.2 03:13:26 10° NNW 03:18:58 58° WSW 03:24:04 20° S
Cosmos 1733 Rocket 4.1 03:19:01 28° W 03:19:51 31° WNW 03:23:45 10° NNW
ADEOS Rocket 3.4 03:12:56 10° NNE 03:20:38 86° WNW 03:25:04 26° SSW
Cosmos 2082 Rocket 2.6 03:15:59 10° NW 03:21:14 42° WSW 03:22:59 33° SSW
Cosmos 2150 Rocket 4.4 03:19:04 33° SW 03:21:18 55° WNW 03:26:41 10° N
Cosmos 1825 4.5 03:21:09 13° WNW 03:21:23 13° WNW 03:23:10 10° NW
Meteor 1-14 Rocket 4.4 03:20:21 27° S 03:23:47 81° E 03:29:47 10° NNE
ATLAS 3B R/B 3.0 03:28:26 25° SW 03:33:02 66° NW 03:40:12 10° NNE
Cosmos 44 4.4 03:32:00 21° W 03:34:14 31° NW 03:38:14 10° NNE
S3M 3.9 03:33:48 10° N 03:40:02 89° E 03:45:40 12° S
Sich 1 Rocket 4.1 03:38:43 31° SW 03:40:30 47° WNW 03:44:56 10° N
MOZ.5/SAFIR/RUBIN 5/SL-8 4.4 03:40:02 10° SSE 03:44:40 56° ENE 03:49:19 10° N
ADEOS 3.5 03:39:31 10° NNE 03:44:47 89° WNW 03:48:14 22° SSW
Okean 3 4.1 03:42:24 10° NNW 03:46:19 37° W 03:47:41 29° SW
Gbstr 26 Del rocket 4.4 03:45:07 18° SSE 03:46:31 21° SE 03:49:26 10° E
Timation 2 Rocket 4.3 03:45:49 10° NW 03:51:30 42° WSW 03:56:12 15° S
Resurs 1-4 Rocket 2.3 03:51:21 10° N 03:56:35 59° WNW 04:00:04 21° SW
Cosmos 1633 2.9 03:54:43 19° S 03:57:13 65° E 04:00:50 10° NNE
Okean 1 3.4 03:53:39 10° N 03:57:44 81° E 04:01:41 11° S
BREEZE-M DEB (TANK) 3.2 03:56:48 18° SW 04:02:50 61° SSE 04:06:01 10° ENE
MOS 1 Rocket 3.6 03:58:10 10° NNE 04:03:36 88° ESE 04:08:01 15° SSW
BREEZE M DEB (TANK) 2.6 04:04:02 22° SSE 04:04:35 25° SE 04:06:34 10° ENE
BREEZE-M DEB (TANK) 2.2 04:04:04 25° WSW 04:05:29 74° NNW 04:11:22 10° ENE
SeaSat 1 4.0 04:05:49 16° WSW 04:06:15 16° WSW 04:09:19 10° WNW
BREEZE-M R/B 3.6 04:01:42 10° WNW 04:07:49 60° NNE 04:10:59 10° ESE
Okean 2 Rocket 3.3 04:05:26 21° SSW 04:08:14 54° W 04:12:34 10° N
GRACE-1 4.0 04:07:29 17° SSE 04:09:24 67° E 04:12:07 10° N
GRACE-2 4.0 04:07:53 16° SSE 04:09:51 67° E 04:12:32 10° N
CZ-2D R/B 2.7 04:06:55 10° N 04:12:00 44° WNW 04:15:55 17° SW
Cosmos 1125 Rocket 3.7 04:11:41 18° SSW 04:15:40 64° WNW 04:20:57 10° NNE
ARIANE 5 R/B 3.1 04:12:40 10° N 04:17:20 40° WNW 04:20:58 16° SW
Cosmos 1441 Rocket 3.6 04:13:51 10° N 04:17:51 68° E 04:21:49 10° SSE
CZ-2D R/B 3.6 04:16:46 10° N 04:21:08 72° WNW 04:25:07 13° SSW
USA 238 DEB 4.5 04:18:44 13° WSW 04:24:41 43° NW 04:31:20 10° NNE
USA 238 4.5 04:18:50 13° WSW 04:24:47 43° NW 04:31:26 10° NNE
UNKNOWN OBJECT B 3.1 04:23:39 10° N 04:27:15 46° WNW 04:30:08 14° SW
Cosmos 1300 Rocket 4.1 04:23:06 10° S 04:27:28 61° E 04:31:52 10° NNE
Okean O Rocket 2.8 04:34:44 10° NNE 04:38:55 42° E 04:43:05 10° S
Cosmos 1943 Rocket 2.2 04:33:17 10° SSW 04:38:56 88° ESE 04:44:37 10° NNE
Cosmos 2369 Rocket 2.6 04:36:24 12° SW 04:41:27 50° WNW 04:46:57 10° NNE
PSLV R/B 3.7 04:41:01 13° SW 04:43:48 45° SSE 04:46:59 10° E
Cosmos 1269 Rocket 4.4 04:40:12 10° NNW 04:45:14 45° WSW 04:50:14 10° S
Meteor 1-19 Rocket 4.2 04:39:58 10° NNW 04:45:33 72° W 04:51:13 10° S
Cosmos 405 Rocket 3.7 04:42:49 10° NNW 04:46:16 29° W 04:49:39 10° SSW
CZ-3B DEB 4.2 04:38:18 10° NW 04:50:09 43° WSW 04:59:38 10° S
COSMOS 2455 2.9 04:44:39 10° SSW 04:50:40 80° WNW 04:56:44 10° NNE
SL-16 R/B 3.9 04:46:54 10° SW 04:51:11 19° W 04:55:31 10° NW
ADEOS II 2.3 04:47:05 10° NNE 04:52:23 77° ESE 04:57:38 10° S
USA 267 3.6 04:49:19 10° NE 04:55:45 61° NW 05:02:09 10° WSW
Cosmos 2151 Rocket 4.5 04:52:14 10° SW 04:56:21 34° WNW 05:00:30 10° N
deb Kosmos-1763 4.2 04:54:26 10° NNW 04:58:08 55° WSW 05:01:48 10° S
Cosmos 1656 Rocket 4.2 04:55:32 10° S 05:00:49 58° ESE 05:06:09 10° NNE
USA 161 2.5 04:59:45 10° SSW 05:01:37 21° W 05:03:36 10° NW
Cosmos 1536 2.9 04:59:43 10° SSW 05:03:37 59° W 05:07:34 10° N
NOSS 3-2 (C) 3.9 04:58:20 10° SW 05:04:14 53° NW 05:10:44 10° NNE
NOSS 3-2 (A) 4.3 04:59:27 10° WSW 05:05:10 42° NW 05:11:28 10° NNE
Cosmos 494 Rocket 4.1 05:00:32 10° NNW 05:05:50 87° WSW 05:11:05 10° SSE
